Regional Weather Roundup
Issued by NWS

Home | Current Version | Previous Version | Text Only | Print | Product List | Glossary On
Versions: 1 2 3 4 5 6 7 8 9 10 11 12 13 14 15 16 17 18 19 20 21 22 23 24 25 26 27 28 29 30 31 32 33 34 35 36 37 38 39 40 41 42 43 44 45 46 47 48 49 50
212
ASUS43 KLMK 221010
RWRKY
KENTUCKY REGIONAL WEATHER ROUNDUP
NATIONAL WEATHER SERVICE LOUISVILLE KY
500 AM EST WED NOV 22 2017

NOTE "FAIR" INDICATES FEW OR NO CLOUDS BELOW 12,000 FEET
WITH NO SIGNIFICANT WEATHER AND/OR OBSTRUCTIONS TO VISIBILITY.

KYZ001>023-026-027-061>063-070>075-221100-
WESTERN AND SOUTH CENTRAL KENTUCKY

CITY           SKY/WX    TMP DP  RH WIND       PRES   REMARKS
PADUCAH        CLEAR     30  21  69 N8        30.29R WCI  22
HENDERSON      CLEAR     30  23  75 NW7       30.30R WCI  23
OWENSBORO      CLEAR     30  24  78 N6        30.28R WCI  24
HOPKINSVILLE   CLEAR     31  22  71 N8        30.24R WCI  23
BOWLING GREEN  CLEAR     35  27  72 VRB6      30.22R WCI  30
GLASGOW        CLEAR     32  29  86 N8        30.20R WCI  25
$$

KYZ024-025-028>034-038-045-046-053-221100-
NORTH CENTRAL KENTUCKY

CITY           SKY/WX    TMP DP  RH WIND       PRES   REMARKS
LOUISVILLE/SDF CLEAR     33  23  66 N12       30.23R WCI  24
LOUISVILLE/LOU CLEAR     32  24  72 N6        30.24R WCI  26
FORT KNOX      CLEAR     30  23  74 N7        30.21R WCI  23
$$

KYZ035>037-039>044-047>052-055>060-089>105-221100-
NORTHEAST KENTUCKY

CITY           SKY/WX    TMP DP  RH WIND       PRES   REMARKS
LEXINGTON      MOCLDY    32  26  78 NW9       30.18R WCI  24
COVINGTON      CLEAR     29  26  89 NW8       30.19R WCI  21
FRANKFORT      CLEAR     30  24  78 NW6       30.19R WCI  24
$$

KYZ054-064>069-076>088-106>120-221100-
SOUTHEAST KENTUCKY

CITY           SKY/WX    TMP DP  RH WIND       PRES   REMARKS
JACKSON        MOCLDY    40  33  76 VRB3      30.12R
LONDON         CLEAR     39  33  79 N8        30.13R WCI  33
SOMERSET       CLOUDY    36  30  80 N10G20    30.17R WCI  28
MIDDLESBORO    CLEAR     45  32  61 NE6       30.10R
MONTICELLO     MOSUNNY   39  35  86 N15       30.17R WCI  31
$$





USA.gov is the U.S. government's official web portal to all federal, state and local government web resources and services.